owner,sensor,date,latitude,longitude,vertical_datum,direction_of_sea_water_velocity,sea_water_speed,upward_sea_water_velocity,qcFlag 
TABS,ioos:station:wmo:42044:1,2005-04-01T00:00:00Z,26.1914,-97.0507,2.0,312.6830176,19.41181341,-99999.0,'11111222,11111222,99999999' 
TABS,ioos:station:wmo:42044:1,2005-04-01T00:30:00Z,26.1914,-97.0507,2.0,313.4748563,18.32763214,-99999.0,'11111222,11111222,99999999' 
TABS,ioos:station:wmo:42044:1,2005-04-01T01:00:00Z,26.1914,-97.0507,2.0,303.1292296,17.84001401,-99999.0,'11111222,11111222,99999999' 
TABS,ioos:station:wmo:42044:1,2005-04-01T01:30:00Z,26.1914,-97.0507,2.0,302.1247466,18.88072297,-99999.0,'11111222,11111222,99999999' 
TABS,ioos:station:wmo:42044:1,2005-04-01T02:00:00Z,26.1914,-97.0507,2.0,299.3469101,22.30198422,-99999.0,'11111222,11111222,99999999' 
TABS,ioos:station:wmo:42044:1,2005-04-01T02:30:00Z,26.1914,-97.0507,2.0,300.5222451,22.68307739,-99999.0,'11111222,11111222,99999999' 
TABS,ioos:station:wmo:42044:1,2005-04-01T03:00:00Z,26.1914,-97.0507,2.0,302.6560637,23.81438641,-99999.0,'11111222,11111222,99999999' 
TABS,ioos:station:wmo:42044:1,2005-04-01T03:30:00Z,26.1914,-97.0507,2.0,302.2241602,25.58005473,-99999.0,'11111222,11111222,99999999' 
TABS,ioos:station:wmo:42044:1,2005-04-01T04:00:00Z,26.1914,-97.0507,2.0,297.9586326,26.854171,-99999.0,'11111222,11111222,99999999' 
TABS,ioos:station:wmo:42044:1,2005-04-01T04:30:00Z,26.1914,-97.0507,2.0,299.6305477,27.26536998,-99999.0,'11111222,11111222,99999999' 
TABS,ioos:station:wmo:42044:1,2005-04-01T05:00:00Z,26.1914,-97.0507,2.0,301.6335499,29.20991784,-99999.0,'11111222,11111222,99999999' 
TABS,ioos:station:wmo:42044:1,2005-04-01T05:30:00Z,26.1914,-97.0507,2.0,303.2699175,30.98916101,-99999.0,'11111222,11111222,99999999' 
TABS,ioos:station:wmo:42044:1,2005-04-01T06:00:00Z,26.1914,-97.0507,2.0,304.571413,30.66467838,-99999.0,'11111222,11111222,99999999' 
TABS,ioos:station:wmo:42044:1,2005-04-01T06:30:00Z,26.1914,-97.0507,2.0,310.2376904,33.46979086,-99999.0,'11111222,11111222,99999999' 
TABS,ioos:station:wmo:42044:1,2005-04-01T07:00:00Z,26.1914,-97.0507,2.0,314.5443264,32.87443536,-99999.0,'11111222,11111222,99999999' 
TABS,ioos:station:wmo:42044:1,2005-04-01T07:30:00Z,26.1914,-97.0507,2.0,320.3321371,33.10146976,-99999.0,'11111222,11111222,99999999' 
TABS,ioos:station:wmo:42044:1,2005-04-01T08:00:00Z,26.1914,-97.0507,2.0,316.0812373,35.60916315,-99999.0,'11111222,11111222,99999999' 
TABS,ioos:station:wmo:42044:1,2005-04-01T08:30:00Z,26.1914,-97.0507,2.0,317.9911121,32.93239287,-99999.0,'11111222,11111222,99999999' 
TABS,ioos:station:wmo:42044:1,2005-04-01T09:00:00Z,26.1914,-97.0507,2.0,323.298295,29.348126,-99999.0,'11111222,11111222,99999999' 
TABS,ioos:station:wmo:42044:1,2005-04-01T09:30:00Z,26.1914,-97.0507,2.0,320.5835469,28.49014215,-99999.0,'11111222,11111222,99999999' 
TABS,ioos:station:wmo:42044:1,2005-04-01T10:00:00Z,26.1914,-97.0507,2.0,323.1744557,26.01000769,-99999.0,'11111222,11111222,99999999' 
TABS,ioos:station:wmo:42044:1,2005-04-01T10:30:00Z,26.1914,-97.0507,2.0,313.0204698,22.71876097,-99999.0,'11111222,11111222,99999999' 
TABS,ioos:station:wmo:42044:1,2005-04-01T11:00:00Z,26.1914,-97.0507,2.0,313.9632892,16.01859232,-99999.0,'11111222,11111222,99999999' 
TABS,ioos:station:wmo:42044:1,2005-04-01T11:30:00Z,26.1914,-97.0507,2.0,313.2020451,10.59060433,-99999.0,'11111222,11111222,99999999' 
TABS,ioos:station:wmo:42044:1,2005-04-01T12:00:00Z,26.1914,-97.0507,2.0,290.0524562,8.516243303,-99999.0,'11133222,11111222,99999999' 
TABS,ioos:station:wmo:42044:1,2005-04-01T12:30:00Z,26.1914,-97.0507,2.0,257.0142713,9.25671648,-99999.0,'11133222,11111222,99999999' 
TABS,ioos:station:wmo:42044:1,2005-04-01T13:00:00Z,26.1914,-97.0507,2.0,228.4206666,9.598400908,-99999.0,'11133222,11111222,99999999' 
TABS,ioos:station:wmo:42044:1,2005-04-01T13:30:00Z,26.1914,-97.0507,2.0,214.7442689,11.00156807,-99999.0,'11111222,11111222,99999999' 
TABS,ioos:station:wmo:42044:1,2005-04-01T14:00:00Z,26.1914,-97.0507,2.0,194.6347108,13.69430904,-99999.0,'11111222,11111222,99999999' 
TABS,ioos:station:wmo:42044:1,2005-04-01T14:30:00Z,26.1914,-97.0507,2.0,191.0561767,20.388433,-99999.0,'11111222,11111222,99999999' 
TABS,ioos:station:wmo:42044:1,2005-04-01T15:00:00Z,26.1914,-97.0507,2.0,184.8077323,22.54934589,-99999.0,'11111222,11111222,99999999' 
TABS,ioos:station:wmo:42044:1,2005-04-01T15:30:00Z,26.1914,-97.0507,2.0,179.3040775,30.47224639,-99999.0,'11111222,11111222,99999999' 
TABS,ioos:station:wmo:42044:1,2005-04-01T16:00:00Z,26.1914,-97.0507,2.0,176.9164019,36.25248267,-99999.0,'11111222,11111222,99999999' 
TABS,ioos:station:wmo:42044:1,2005-04-01T16:30:00Z,26.1914,-97.0507,2.0,181.3093425,39.38028568,-99999.0,'11111222,11111222,99999999' 
TABS,ioos:station:wmo:42044:1,2005-04-01T17:00:00Z,26.1914,-97.0507,2.0,184.3160695,41.05644529,-99999.0,'11111222,11111222,99999999' 
TABS,ioos:station:wmo:42044:1,2005-04-01T17:30:00Z,26.1914,-97.0507,2.0,184.4825225,48.10716371,-99999.0,'11111222,11111222,99999999' 
TABS,ioos:station:wmo:42044:1,2005-04-01T18:00:00Z,26.1914,-97.0507,2.0,182.8864862,50.63425125,-99999.0,'11111222,11111222,99999999' 
TABS,ioos:station:wmo:42044:1,2005-04-01T18:30:00Z,26.1914,-97.0507,2.0,178.8882225,53.6100886,-99999.0,'11111222,11111222,99999999' 
TABS,ioos:station:wmo:42044:1,2005-04-01T19:00:00Z,26.1914,-97.0507,2.0,183.2098554,54.64574274,-99999.0,'11111222,11111222,99999999' 
TABS,ioos:station:wmo:42044:1,2005-04-01T19:30:00Z,26.1914,-97.0507,2.0,181.0518782,57.72973237,-99999.0,'11111222,11111222,99999999' 
TABS,ioos:station:wmo:42044:1,2005-04-01T20:00:00Z,26.1914,-97.0507,2.0,182.6318838,59.01225805,-99999.0,'11111222,11111222,99999999' 
TABS,ioos:station:wmo:42044:1,2005-04-01T20:30:00Z,26.1914,-97.0507,2.0,183.9804406,58.34074477,-99999.0,'11111222,11111222,99999999' 
TABS,ioos:station:wmo:42044:1,2005-04-01T21:00:00Z,26.1914,-97.0507,2.0,187.1323744,56.2150229,-99999.0,'11111222,11111222,99999999' 
TABS,ioos:station:wmo:42044:1,2005-04-01T21:30:00Z,26.1914,-97.0507,2.0,186.2775838,55.78451846,-99999.0,'11111222,11111222,99999999' 
TABS,ioos:station:wmo:42044:1,2005-04-01T22:00:00Z,26.1914,-97.0507,2.0,188.1525822,53.52091647,-99999.0,'11111222,11111222,99999999' 
TABS,ioos:station:wmo:42044:1,2005-04-01T22:30:00Z,26.1914,-97.0507,2.0,188.6354575,49.68325674,-99999.0,'11111222,11111222,99999999' 
TABS,ioos:station:wmo:42044:1,2005-04-01T23:00:00Z,26.1914,-97.0507,2.0,188.7333247,51.83097337,-99999.0,'11111222,11111222,99999999' 
TABS,ioos:station:wmo:42044:1,2005-04-01T23:30:00Z,26.1914,-97.0507,2.0,185.3064675,48.97993263,-99999.0,'11111222,11111222,99999999' 
TABS,ioos:station:wmo:42044:1,2005-04-02T00:00:00Z,26.1914,-97.0507,2.0,187.2421108,46.64211938,-99999.0,'11111222,11111222,99999999' 
TABS,ioos:station:wmo:42044:1,2005-04-02T00:30:00Z,26.1914,-97.0507,2.0,188.7615335,47.46389154,-99999.0,'11111222,11111222,99999999' 
TABS,ioos:station:wmo:42044:1,2005-04-02T01:00:00Z,26.1914,-97.0507,2.0,189.0501549,44.81796626,-99999.0,'11111222,11111222,99999999' 
TABS,ioos:station:wmo:42044:1,2005-04-02T01:30:00Z,26.1914,-97.0507,2.0,185.7738168,44.92794676,-99999.0,'11111222,11111222,99999999' 
TABS,ioos:station:wmo:42044:1,2005-04-02T02:00:00Z,26.1914,-97.0507,2.0,185.181606,45.28507591,-99999.0,'11111222,11111222,99999999' 
TABS,ioos:station:wmo:42044:1,2005-04-02T02:30:00Z,26.1914,-97.0507,2.0,184.98092,43.53441512,-99999.0,'11111222,11111222,99999999' 
TABS,ioos:station:wmo:42044:1,2005-04-02T03:00:00Z,26.1914,-97.0507,2.0,181.7036692,40.35784434,-99999.0,'11111222,11111222,99999999' 
TABS,ioos:station:wmo:42044:1,2005-04-02T03:30:00Z,26.1914,-97.0507,2.0,183.906896,37.27663746,-99999.0,'11111222,11111222,99999999' 
TABS,ioos:station:wmo:42044:1,2005-04-02T04:00:00Z,26.1914,-97.0507,2.0,184.9018911,37.79826054,-99999.0,'11111222,11111222,99999999' 
TABS,ioos:station:wmo:42044:1,2005-04-02T04:30:00Z,26.1914,-97.0507,2.0,182.5016646,32.30078946,-99999.0,'11111222,11111222,99999999' 
TABS,ioos:station:wmo:42044:1,2005-04-02T05:00:00Z,26.1914,-97.0507,2.0,183.5696023,32.92388343,-99999.0,'11111222,11111222,99999999' 
TABS,ioos:station:wmo:42044:1,2005-04-02T05:30:00Z,26.1914,-97.0507,2.0,181.1310878,30.8960224,-99999.0,'11111222,11111222,99999999' 
TABS,ioos:station:wmo:42044:1,2005-04-02T06:00:00Z,26.1914,-97.0507,2.0,182.5195485,30.47947014,-99999.0,'11111222,11111222,99999999' 
TABS,ioos:station:wmo:42044:1,2005-04-02T06:30:00Z,26.1914,-97.0507,2.0,181.7239541,28.58294072,-99999.0,'11111222,11111222,99999999' 
TABS,ioos:station:wmo:42044:1,2005-04-02T07:00:00Z,26.1914,-97.0507,2.0,180.6317012,29.9218198,-99999.0,'11111222,11111222,99999999' 
TABS,ioos:station:wmo:42044:1,2005-04-02T07:30:00Z,26.1914,-97.0507,2.0,203.7688406,28.87965547,-99999.0,'11111222,11111222,99999999' 
TABS,ioos:station:wmo:42044:1,2005-04-02T08:00:00Z,26.1914,-97.0507,2.0,212.4613646,23.02812411,-99999.0,'11111222,11111222,99999999' 
TABS,ioos:station:wmo:42044:1,2005-04-02T08:30:00Z,26.1914,-97.0507,2.0,209.5974741,20.28718808,-99999.0,'11111222,11111222,99999999' 
TABS,ioos:station:wmo:42044:1,2005-04-02T09:00:00Z,26.1914,-97.0507,2.0,227.1117924,16.6919891,-99999.0,'11111222,11111222,99999999' 
TABS,ioos:station:wmo:42044:1,2005-04-02T09:30:00Z,26.1914,-97.0507,2.0,230.6252749,15.6529518,-99999.0,'11111222,11111222,99999999' 
TABS,ioos:station:wmo:42044:1,2005-04-02T10:00:00Z,26.1914,-97.0507,2.0,234.9224579,11.57166367,-99999.0,'11111222,11111222,99999999' 
TABS,ioos:station:wmo:42044:1,2005-04-02T10:30:00Z,26.1914,-97.0507,2.0,233.8974871,12.38911216,-99999.0,'11111222,11111222,99999999' 
TABS,ioos:station:wmo:42044:1,2005-04-02T11:00:00Z,26.1914,-97.0507,2.0,258.3703694,11.26116335,-99999.0,'11111222,11111222,99999999' 
TABS,ioos:station:wmo:42044:1,2005-04-02T11:30:00Z,26.1914,-97.0507,2.0,251.0679028,8.75351358,-99999.0,'11133222,11111222,99999999' 
TABS,ioos:station:wmo:42044:1,2005-04-02T12:00:00Z,26.1914,-97.0507,2.0,259.0863011,9.349080169,-99999.0,'11133222,11111222,99999999' 
TABS,ioos:station:wmo:42044:1,2005-04-02T12:30:00Z,26.1914,-97.0507,2.0,259.5960457,8.30655765,-99999.0,'11133222,11111222,99999999' 
TABS,ioos:station:wmo:42044:1,2005-04-02T13:00:00Z,26.1914,-97.0507,2.0,286.5544328,4.91366462,-99999.0,'11133222,11111222,99999999' 
TABS,ioos:station:wmo:42044:1,2005-04-02T13:30:00Z,26.1914,-97.0507,2.0,290.3996393,4.705071732,-99999.0,'11133222,11111222,99999999' 
TABS,ioos:station:wmo:42044:1,2005-04-02T14:00:00Z,26.1914,-97.0507,2.0,315.3212963,5.048821645,-99999.0,'11133222,11111222,99999999' 
TABS,ioos:station:wmo:42044:1,2005-04-02T14:30:00Z,26.1914,-97.0507,2.0,320.6619875,6.594118592,-99999.0,'11133222,11111222,99999999' 
TABS,ioos:station:wmo:42044:1,2005-04-02T15:00:00Z,26.1914,-97.0507,2.0,314.4148331,4.843934351,-99999.0,'11133222,11111222,99999999' 
TABS,ioos:station:wmo:42044:1,2005-04-02T15:30:00Z,26.1914,-97.0507,2.0,344.5279922,5.322903343,-99999.0,'11133222,11111222,99999999' 
TABS,ioos:station:wmo:42044:1,2005-04-02T16:00:00Z,26.1914,-97.0507,2.0,329.7613961,7.049155978,-99999.0,'11133222,11111222,99999999' 
TABS,ioos:station:wmo:42044:1,2005-04-02T16:30:00Z,26.1914,-97.0507,2.0,348.9741447,8.313464982,-99999.0,'11133222,11111222,99999999' 
TABS,ioos:station:wmo:42044:1,2005-04-02T17:00:00Z,26.1914,-97.0507,2.0,339.4253599,7.113761312,-99999.0,'11133222,11111222,99999999' 
TABS,ioos:station:wmo:42044:1,2005-04-02T17:30:00Z,26.1914,-97.0507,2.0,2.286662384,5.514390265,-99999.0,'11133222,11111222,99999999' 
TABS,ioos:station:wmo:42044:1,2005-04-02T18:00:00Z,26.1914,-97.0507,2.0,332.2809834,10.87844198,-99999.0,'11111222,11111222,99999999' 
TABS,ioos:station:wmo:42044:1,2005-04-02T18:30:00Z,26.1914,-97.0507,2.0,334.7360764,21.27496181,-99999.0,'11111222,11111222,99999999' 
TABS,ioos:station:wmo:42044:1,2005-04-02T19:00:00Z,26.1914,-97.0507,2.0,340.6176437,21.0320232,-99999.0,'11111222,11111222,99999999' 
TABS,ioos:station:wmo:42044:1,2005-04-02T19:30:00Z,26.1914,-97.0507,2.0,341.2066002,22.22492295,-99999.0,'11111222,11111222,99999999' 
TABS,ioos:station:wmo:42044:1,2005-04-02T20:00:00Z,26.1914,-97.0507,2.0,337.7925067,22.77982002,-99999.0,'11111222,11111222,99999999' 
TABS,ioos:station:wmo:42044:1,2005-04-02T20:30:00Z,26.1914,-97.0507,2.0,338.5379557,23.53172539,-99999.0,'11111222,11111222,99999999' 
TABS,ioos:station:wmo:42044:1,2005-04-02T21:00:00Z,26.1914,-97.0507,2.0,343.1184399,25.55110369,-99999.0,'11111222,11111222,99999999' 
TABS,ioos:station:wmo:42044:1,2005-04-02T21:30:00Z,26.1914,-97.0507,2.0,342.2611691,23.43420577,-99999.0,'11111222,11111222,99999999' 
TABS,ioos:station:wmo:42044:1,2005-04-02T22:00:00Z,26.1914,-97.0507,2.0,346.6408378,25.66448519,-99999.0,'11111222,11111222,99999999' 
TABS,ioos:station:wmo:42044:1,2005-04-02T22:30:00Z,26.1914,-97.0507,2.0,353.1189397,22.45173045,-99999.0,'11111222,11111222,99999999' 
TABS,ioos:station:wmo:42044:1,2005-04-02T23:00:00Z,26.1914,-97.0507,2.0,356.0141067,22.15359113,-99999.0,'11111222,11111222,99999999' 
TABS,ioos:station:wmo:42044:1,2005-04-02T23:30:00Z,26.1914,-97.0507,2.0,354.9495611,18.40144831,-99999.0,'11111222,11111222,99999999' 
TABS,ioos:station:wmo:42044:1,2005-04-03T00:00:00Z,26.1914,-97.0507,2.0,359.6259226,19.90042462,-99999.0,'11111222,11144222,99999999' 
TABS,ioos:station:wmo:42044:1,2005-04-03T00:30:00Z,26.1914,-97.0507,2.0,3.553860325,20.48939726,-99999.0,'11111222,11111222,99999999' 
TABS,ioos:station:wmo:42044:1,2005-04-03T01:00:00Z,26.1914,-97.0507,2.0,1.009165404,18.17281761,-99999.0,'11111222,11111222,99999999' 
TABS,ioos:station:wmo:42044:1,2005-04-03T01:30:00Z,26.1914,-97.0507,2.0,3.399916668,19.22383156,-99999.0,'11111222,11111222,99999999' 
TABS,ioos:station:wmo:42044:1,2005-04-03T02:00:00Z,26.1914,-97.0507,2.0,8.184363284,17.98314767,-99999.0,'11111222,11111222,99999999' 
TABS,ioos:station:wmo:42044:1,2005-04-03T02:30:00Z,26.1914,-97.0507,2.0,1.227567316,18.67428446,-99999.0,'11111222,11111222,99999999' 
TABS,ioos:station:wmo:42044:1,2005-04-03T03:00:00Z,26.1914,-97.0507,2.0,8.937492024,16.86475615,-99999.0,'11111222,11111222,99999999' 
TABS,ioos:station:wmo:42044:1,2005-04-03T03:30:00Z,26.1914,-97.0507,2.0,3.133980608,15.18270398,-99999.0,'11111222,11111222,99999999' 
TABS,ioos:station:wmo:42044:1,2005-04-03T04:00:00Z,26.1914,-97.0507,2.0,4.029474765,15.93939773,-99999.0,'11111222,11111222,99999999' 
TABS,ioos:station:wmo:42044:1,2005-04-03T04:30:00Z,26.1914,-97.0507,2.0,11.06636956,15.21286627,-99999.0,'11111222,11111222,99999999' 
TABS,ioos:station:wmo:42044:1,2005-04-03T05:00:00Z,26.1914,-97.0507,2.0,11.36041994,15.63634548,-99999.0,'11111222,11111222,99999999' 
TABS,ioos:station:wmo:42044:1,2005-04-03T05:30:00Z,26.1914,-97.0507,2.0,3.238255474,13.100916,-99999.0,'11111222,11111222,99999999' 
TABS,ioos:station:wmo:42044:1,2005-04-03T06:00:00Z,26.1914,-97.0507,2.0,2.384408089,13.70186119,-99999.0,'11111222,11111222,99999999' 
TABS,ioos:station:wmo:42044:1,2005-04-03T06:30:00Z,26.1914,-97.0507,2.0,0.243428839,16.49014857,-99999.0,'11111222,11111222,99999999' 
TABS,ioos:station:wmo:42044:1,2005-04-03T07:00:00Z,26.1914,-97.0507,2.0,9.237742755,13.82934923,-99999.0,'11111222,11111222,99999999' 
TABS,ioos:station:wmo:42044:1,2005-04-03T07:30:00Z,26.1914,-97.0507,2.0,18.99801982,14.80649857,-99999.0,'11111222,11111222,99999999' 
TABS,ioos:station:wmo:42044:1,2005-04-03T08:00:00Z,26.1914,-97.0507,2.0,350.6876606,17.61212367,-99999.0,'11111222,11111222,99999999' 
TABS,ioos:station:wmo:42044:1,2005-04-03T08:30:00Z,26.1914,-97.0507,2.0,351.4479378,18.42487449,-99999.0,'11111222,11111222,99999999' 
TABS,ioos:station:wmo:42044:1,2005-04-03T09:00:00Z,26.1914,-97.0507,2.0,352.2880081,18.03311676,-99999.0,'11111222,11111222,99999999' 
TABS,ioos:station:wmo:42044:1,2005-04-03T09:30:00Z,26.1914,-97.0507,2.0,349.2410944,19.17712179,-99999.0,'11111222,11111222,99999999' 
TABS,ioos:station:wmo:42044:1,2005-04-03T10:00:00Z,26.1914,-97.0507,2.0,350.1079958,19.49991282,-99999.0,'11111222,11111222,99999999' 
TABS,ioos:station:wmo:42044:1,2005-04-03T10:30:00Z,26.1914,-97.0507,2.0,348.8070609,21.17274191,-99999.0,'11111222,11111222,99999999' 
TABS,ioos:station:wmo:42044:1,2005-04-03T11:00:00Z,26.1914,-97.0507,2.0,352.6886953,20.19420214,-99999.0,'11111222,11111222,99999999' 
TABS,ioos:station:wmo:42044:1,2005-04-03T11:30:00Z,26.1914,-97.0507,2.0,349.7339161,22.61201893,-99999.0,'11111222,11111222,99999999' 
TABS,ioos:station:wmo:42044:1,2005-04-03T12:00:00Z,26.1914,-97.0507,2.0,356.3994533,23.40620644,-99999.0,'11111222,11111222,99999999' 
TABS,ioos:station:wmo:42044:1,2005-04-03T12:30:00Z,26.1914,-97.0507,2.0,348.7222189,24.64591853,-99999.0,'11111222,11111222,99999999' 
TABS,ioos:station:wmo:42044:1,2005-04-03T13:00:00Z,26.1914,-97.0507,2.0,350.9951936,23.89450983,-99999.0,'11111222,11111222,99999999' 
TABS,ioos:station:wmo:42044:1,2005-04-03T13:30:00Z,26.1914,-97.0507,2.0,353.1625646,26.70997566,-99999.0,'11111222,11111222,99999999' 
TABS,ioos:station:wmo:42044:1,2005-04-03T14:00:00Z,26.1914,-97.0507,2.0,349.6292134,26.33016521,-99999.0,'11111222,11111222,99999999' 
TABS,ioos:station:wmo:42044:1,2005-04-03T14:30:00Z,26.1914,-97.0507,2.0,348.8203156,28.52124296,-99999.0,'11111222,11111222,99999999' 
TABS,ioos:station:wmo:42044:1,2005-04-03T15:00:00Z,26.1914,-97.0507,2.0,350.3902769,27.43499408,-99999.0,'11111222,11111222,99999999' 
TABS,ioos:station:wmo:42044:1,2005-04-03T15:30:00Z,26.1914,-97.0507,2.0,347.903943,26.00744893,-99999.0,'11111222,11111222,99999999' 
TABS,ioos:station:wmo:42044:1,2005-04-03T16:00:00Z,26.1914,-97.0507,2.0,347.8853377,25.82516021,-99999.0,'11111222,11111222,99999999' 
TABS,ioos:station:wmo:42044:1,2005-04-03T16:30:00Z,26.1914,-97.0507,2.0,356.4971562,24.87648086,-99999.0,'11111222,11111222,99999999' 
TABS,ioos:station:wmo:42044:1,2005-04-03T17:00:00Z,26.1914,-97.0507,2.0,359.4514662,22.97105352,-99999.0,'11111222,11144222,99999999' 
TABS,ioos:station:wmo:42044:1,2005-04-03T17:30:00Z,26.1914,-97.0507,2.0,1.22173407,22.98522351,-99999.0,'11111222,11111222,99999999' 
TABS,ioos:station:wmo:42044:1,2005-04-03T18:00:00Z,26.1914,-97.0507,2.0,6.954302021,24.11742109,-99999.0,'11111222,11111222,99999999' 
TABS,ioos:station:wmo:42044:1,2005-04-03T18:30:00Z,26.1914,-97.0507,2.0,2.529505518,23.7931797,-99999.0,'11111222,11111222,99999999' 
TABS,ioos:station:wmo:42044:1,2005-04-03T19:00:00Z,26.1914,-97.0507,2.0,3.486657177,21.87047782,-99999.0,'11111222,11111222,99999999' 
TABS,ioos:station:wmo:42044:1,2005-04-03T19:30:00Z,26.1914,-97.0507,2.0,356.992368,24.39360572,-99999.0,'11111222,11111222,99999999' 
TABS,ioos:station:wmo:42044:1,2005-04-03T20:00:00Z,26.1914,-97.0507,2.0,358.963075,23.20380141,-99999.0,'11111222,11111222,99999999' 
TABS,ioos:station:wmo:42044:1,2005-04-03T20:30:00Z,26.1914,-97.0507,2.0,356.964256,22.09100496,-99999.0,'11111222,11111222,99999999' 
TABS,ioos:station:wmo:42044:1,2005-04-03T21:00:00Z,26.1914,-97.0507,2.0,2.322500204,20.23662027,-99999.0,'11111222,11111222,99999999' 
TABS,ioos:station:wmo:42044:1,2005-04-03T21:30:00Z,26.1914,-97.0507,2.0,355.0985486,18.95933807,-99999.0,'11111222,11111222,99999999' 
TABS,ioos:station:wmo:42044:1,2005-04-03T22:00:00Z,26.1914,-97.0507,2.0,357.3018525,21.45378754,-99999.0,'11111222,11111222,99999999' 
TABS,ioos:station:wmo:42044:1,2005-04-03T22:30:00Z,26.1914,-97.0507,2.0,353.7376155,23.65114162,-99999.0,'11111222,11111222,99999999' 
TABS,ioos:station:wmo:42044:1,2005-04-03T23:00:00Z,26.1914,-97.0507,2.0,357.254198,22.12540621,-99999.0,'11111222,11111222,99999999' 
TABS,ioos:station:wmo:42044:1,2005-04-03T23:30:00Z,26.1914,-97.0507,2.0,349.3730762,18.76180162,-99999.0,'11111222,11111222,99999999' 
TABS,ioos:station:wmo:42044:1,2005-04-04T00:00:00Z,26.1914,-97.0507,2.0,351.3417852,20.85770841,-99999.0,'11111222,11111222,99999999' 
TABS,ioos:station:wmo:42044:1,2005-04-04T00:30:00Z,26.1914,-97.0507,2.0,352.5439882,21.88505426,-99999.0,'11111222,11111222,99999999' 
TABS,ioos:station:wmo:42044:1,2005-04-04T01:00:00Z,26.1914,-97.0507,2.0,355.6989963,18.93332512,-99999.0,'11111222,11111222,99999999' 
TABS,ioos:station:wmo:42044:1,2005-04-04T01:30:00Z,26.1914,-97.0507,2.0,350.0132198,17.41387091,-99999.0,'11111222,11111222,99999999' 
TABS,ioos:station:wmo:42044:1,2005-04-04T02:00:00Z,26.1914,-97.0507,2.0,352.7017434,18.02605059,-99999.0,'11111222,11111222,99999999' 
TABS,ioos:station:wmo:42044:1,2005-04-04T02:30:00Z,26.1914,-97.0507,2.0,347.9779619,18.77172608,-99999.0,'11111222,11111222,99999999' 
TABS,ioos:station:wmo:42044:1,2005-04-04T03:00:00Z,26.1914,-97.0507,2.0,354.1435296,21.46202693,-99999.0,'11111222,11111222,99999999' 
TABS,ioos:station:wmo:42044:1,2005-04-04T03:30:00Z,26.1914,-97.0507,2.0,349.6446556,19.19262619,-99999.0,'11111222,11111222,99999999' 
TABS,ioos:station:wmo:42044:1,2005-04-04T04:00:00Z,26.1914,-97.0507,2.0,355.9244054,20.82266313,-99999.0,'11111222,11111222,99999999' 
TABS,ioos:station:wmo:42044:1,2005-04-04T04:30:00Z,26.1914,-97.0507,2.0,4.289353758,22.86403508,-99999.0,'11111222,11111222,99999999' 
TABS,ioos:station:wmo:42044:1,2005-04-04T05:00:00Z,26.1914,-97.0507,2.0,2.113482099,21.69475513,-99999.0,'11111222,11111222,99999999' 
TABS,ioos:station:wmo:42044:1,2005-04-04T05:30:00Z,26.1914,-97.0507,2.0,1.318868051,22.59598416,-99999.0,'11111222,11111222,99999999' 
TABS,ioos:station:wmo:42044:1,2005-04-04T06:00:00Z,26.1914,-97.0507,2.0,1.607515229,24.59967886,-99999.0,'11111222,11111222,99999999' 
TABS,ioos:station:wmo:42044:1,2005-04-04T06:30:00Z,26.1914,-97.0507,2.0,358.9858262,24.85389507,-99999.0,'11111222,11111222,99999999' 
TABS,ioos:station:wmo:42044:1,2005-04-04T07:00:00Z,26.1914,-97.0507,2.0,1.101443501,23.41432468,-99999.0,'11111222,11111222,99999999' 
TABS,ioos:station:wmo:42044:1,2005-04-04T07:30:00Z,26.1914,-97.0507,2.0,1.156289992,27.75564988,-99999.0,'11111222,11111222,99999999' 
TABS,ioos:station:wmo:42044:1,2005-04-04T08:00:00Z,26.1914,-97.0507,2.0,1.126213341,24.93481502,-99999.0,'11111222,11111222,99999999' 
TABS,ioos:station:wmo:42044:1,2005-04-04T08:30:00Z,26.1914,-97.0507,2.0,0.02185596,26.47000189,-99999.0,'11111222,11111222,99999999' 
TABS,ioos:station:wmo:42044:1,2005-04-04T09:00:00Z,26.1914,-97.0507,2.0,3.623263913,27.53503223,-99999.0,'11111222,11111222,99999999' 
TABS,ioos:station:wmo:42044:1,2005-04-04T09:30:00Z,26.1914,-97.0507,2.0,1.790116881,28.81405907,-99999.0,'11111222,11111222,99999999' 
TABS,ioos:station:wmo:42044:1,2005-04-04T10:00:00Z,26.1914,-97.0507,2.0,357.585447,30.61718798,-99999.0,'11111222,11111222,99999999' 
TABS,ioos:station:wmo:42044:1,2005-04-04T10:30:00Z,26.1914,-97.0507,2.0,2.083423338,31.91109055,-99999.0,'11111222,11111222,99999999' 
TABS,ioos:station:wmo:42044:1,2005-04-04T11:00:00Z,26.1914,-97.0507,2.0,3.53227258,31.48981581,-99999.0,'11111222,11111222,99999999' 
TABS,ioos:station:wmo:42044:1,2005-04-04T11:30:00Z,26.1914,-97.0507,2.0,2.175604492,33.19392264,-99999.0,'11111222,11111222,99999999' 
TABS,ioos:station:wmo:42044:1,2005-04-04T12:00:00Z,26.1914,-97.0507,2.0,0.506949032,35.05137087,-99999.0,'11111222,11111222,99999999' 
TABS,ioos:station:wmo:42044:1,2005-04-04T12:30:00Z,26.1914,-97.0507,2.0,2.762864935,32.98834036,-99999.0,'11111222,11111222,99999999' 
TABS,ioos:station:wmo:42044:1,2005-04-04T13:00:00Z,26.1914,-97.0507,2.0,3.269299692,35.24735735,-99999.0,'11111222,11111222,99999999' 
TABS,ioos:station:wmo:42044:1,2005-04-04T13:30:00Z,26.1914,-97.0507,2.0,2.290196889,37.03958018,-99999.0,'11111222,11111222,99999999' 
TABS,ioos:station:wmo:42044:1,2005-04-04T14:00:00Z,26.1914,-97.0507,2.0,1.471466955,35.83181268,-99999.0,'11111222,11111222,99999999' 
TABS,ioos:station:wmo:42044:1,2005-04-04T14:30:00Z,26.1914,-97.0507,2.0,5.995299426,36.67055767,-99999.0,'11111222,11111222,99999999' 
TABS,ioos:station:wmo:42044:1,2005-04-04T15:00:00Z,26.1914,-97.0507,2.0,6.653604743,37.37169116,-99999.0,'11111222,11111222,99999999' 
TABS,ioos:station:wmo:42044:1,2005-04-04T15:30:00Z,26.1914,-97.0507,2.0,1.324381481,38.08016938,-99999.0,'11111222,11111222,99999999' 
TABS,ioos:station:wmo:42044:1,2005-04-04T16:00:00Z,26.1914,-97.0507,2.0,6.664140656,40.84596063,-99999.0,'11111222,11111222,99999999' 